P/2005 V1 ( Bernardi )

Japanese version
Home page
Updated on July 7, 2007

---------------------------------------------------------------------

* Profile

Discovery Date November 1, 2005
Magnitude 20.5 mag
Discoverer Fabrizio Bernardi (University of Hawaii Asteroid Search project)

* Orbital Elements

T 2005 Aug. 12.6043 TT                                  MPC
q   2.345203             (2000.0)            P               Q
n   0.1033210      Peri.  357.3300      -0.6040989      -0.7695365
a   4.497905       Node   129.7390      +0.7360492      -0.6383920
e   0.478601       Incl.   15.6217      +0.3054440      +0.0164084
P   9.54
>From 31 observations 2005 Nov. 1-Dec. 29.

* Magnitudes Graph

        m1 = 14.0 + 5 log d + 10.0 log r

---------------------------------------------------------------------

The orbital elements are published on M.P.E.C. 2006-B15.
The magnitudes graphs are made with Comet for Windows.

---------------------------------------------------------------------

Copyright(C) Seiichi Yoshida (comet@aerith.net). All rights reserved.